Weather History for KITR - March, 2014

Change the Weather History Date:

Sunday, March 30, 2014

  Actual Average Record
Temperature  
Mean Temperature 54 °F 44 °F  
Max Temperature 69 °F 59 °F 87 °F (2010)
Min Temperature 38 °F 29 °F 3 °F (1987)
Degree Days  
Heating Degree Days 11    
Growing Degree Days 4 (Base 50)    
Moisture  
Dew Point 20 °F    
Average Humidity 27    
Maximum Humidity 45    
Minimum Humidity 15    
Precipitation  
Precipitation 0.00 in 0.03 in 0.95 in (1949)
Month to date precipitation 0.08 0.85  
Year to date precipitation 0.78 1.65  
Sea Level Pressure  
Sea Level Pressure 29.63 in    
Wind  
Wind Speed 12 mph (SSW)    
Max Wind Speed 21 mph    
Max Gust Speed -    
Visibility 10 miles    
Events      
T = Trace of Precipitation, MM = Missing Value Source: NWS Daily Summary

Daily Weather History Graph

Daily Weather History Graph

Search for Another Location

Airport or City:

Trip Planner

Search our weather history database for the weather conditions in past years. The results will help you decide how hot, cold, wet, or windy it might be!

Date:

Astronomy

Mar. 30, 2014 Rise Set
Actual Time 6:36 AM MDT 7:11 PM MDT
Civil Twilight 6:09 AM MDT 7:38 PM MDT
Nautical Twilight 5:38 AM MDT 8:09 PM MDT
Astronomical Twilight 5:05 AM MDT 8:42 PM MDT
Moon 6:23 AM MDT (3/30) 7:25 PM MDT (3/30)
Length of Visible Light 13h 28m
Length of Day
12h 34m
Waning Crescent, 0% of the Moon is Illuminated
Mar 30
Waning Crescent
Mar 30
New
Apr 7
First Quarter
Apr 15
Full
Apr 22
Last Quarter

Hourly Weather History & Observations

Time (MDT) Temp. Windchill Dew Point Humidity Pressure Visibility Wind Dir Wind Speed Gust Speed Precip Events Conditions
12:53 AM 50.0 °F - 24.1 °F 36% 29.80 in 10.0 mi SW 10.4 mph - N/A   Clear
1:53 AM 46.9 °F - 24.1 °F 41% 29.78 in 10.0 mi WSW 15.0 mph - N/A   Clear
2:53 AM 43.0 °F 36.4 °F 23.0 °F 45% 29.77 in 10.0 mi West 12.7 mph - N/A   Clear
3:53 AM 41.0 °F 34.3 °F 19.0 °F 41% 29.76 in 10.0 mi WSW 11.5 mph - N/A   Clear
4:53 AM 39.0 °F 32.8 °F 16.0 °F 39% 29.76 in 10.0 mi West 9.2 mph - N/A   Clear
5:53 AM 39.0 °F 33.4 °F 15.1 °F 38% 29.77 in 10.0 mi West 8.1 mph - N/A   Clear
6:53 AM 41.0 °F 36.4 °F 16.0 °F 36% 29.79 in 10.0 mi WSW 6.9 mph - N/A   Clear
7:53 AM 44.1 °F 40.8 °F 19.0 °F 37% 29.80 in 10.0 mi WSW 5.8 mph - N/A   Clear
8:53 AM 50.0 °F - 23.0 °F 35% 29.76 in 10.0 mi WSW 5.8 mph - N/A   Clear
9:53 AM 60.1 °F - 21.0 °F 22% 29.73 in 10.0 mi SSW 5.8 mph - N/A   Clear
10:53 AM 63.0 °F - 15.1 °F 16% 29.73 in 10.0 mi South 11.5 mph - N/A   Clear
11:53 AM 66.0 °F - 16.0 °F 15% 29.68 in 10.0 mi South 11.5 mph - N/A   Clear
12:53 PM 66.0 °F - 17.1 °F 15% 29.66 in 10.0 mi South 11.5 mph - N/A   Clear
1:53 PM 66.9 °F - 19.0 °F 16% 29.63 in 10.0 mi South 16.1 mph - N/A   Clear
2:53 PM 69.1 °F - 19.0 °F 15% 29.59 in 10.0 mi South 16.1 mph - N/A   Clear
3:53 PM 69.1 °F - 21.9 °F 17% 29.55 in 10.0 mi SSE 16.1 mph - N/A   Clear
4:53 PM 66.0 °F - 24.1 °F 20% 29.54 in 10.0 mi SSE 15.0 mph - N/A   Clear
5:53 PM 68.0 °F - 26.1 °F 21% 29.50 in 10.0 mi SSE 15.0 mph - N/A   Clear
6:53 PM 60.1 °F - 27.0 °F 28% 29.49 in 10.0 mi SE 11.5 mph - N/A   Clear
7:53 PM 57.9 °F - 27.0 °F 31% 29.50 in 10.0 mi South 16.1 mph - N/A   Clear
8:53 PM 54.0 °F - 19.9 °F 26% 29.47 in 10.0 mi SW 6.9 mph - N/A   Clear
9:53 PM 59.0 °F - 16.0 °F 19% 29.40 in 10.0 mi SW 13.8 mph - N/A   Partly Cloudy
10:53 PM 50.0 °F - 17.1 °F 27% 29.37 in 10.0 mi South 15.0 mph - N/A   Clear
11:53 PM 53.1 °F - 17.1 °F 24% 29.36 in 10.0 mi SW 20.7 mph - N/A   Clear